Change the Weather History Date:

Wednesday, September 4, 2013

  Actual Average Record
Temperature  
Mean Temperature 71 °F -  
Max Temperature 80 °F 79 °F 100 °F (1998)
Min Temperature 61 °F 45 °F 34 °F (2011)
Degree Days  
Heating Degree Days 0    
Cooling Degree Days 6    
Growing Degree Days 20 (Base 50)    
Moisture  
Dew Point 60 °F    
Average Humidity 68    
Maximum Humidity 87    
Minimum Humidity 56    
Precipitation  
Precipitation T in 0.05 in 0.33 in (2007)
Month to date precipitation T 0.17  
Year to date precipitation 11.64 9.84  
Sea Level Pressure  
Sea Level Pressure 30.04 in    
Wind  
Wind Speed 11 mph (ENE)    
Max Wind Speed 16 mph    
Max Gust Speed -    
Visibility 10 miles    
Events      
T = Trace of Precipitation, MM = Missing Value Source: NWS Daily Summary

Daily Weather History Graph

Daily Weather History Graph

Search for Another Location

Airport or City:

Trip Planner

Search our weather history database for the weather conditions in past years. The results will help you decide how hot, cold, wet, or windy it might be!

Date:

Astronomy

Sep. 04, 2013 Rise Set
Actual Time 6:24 AM MDT 7:36 PM MDT
Civil Twilight 5:52 AM MDT 8:08 PM MDT
Nautical Twilight 5:14 AM MDT 8:47 PM MDT
Astronomical Twilight 4:32 AM MDT 9:28 PM MDT
Moon 5:40 AM MDT (9/4) 6:54 PM MDT (9/4)
Length of Visible Light 14h 15m
Length of Day
13h 12m
Waning Crescent, 1% of the Moon is Illuminated
Sep 4
Waning Crescent
Sep 5
New
Sep 12
First Quarter
Sep 19
Full
Sep 26
Last Quarter

Hourly Weather History & Observations

Time (MDT) Temp. Heat Index Dew Point Humidity Pressure Visibility Wind Dir Wind Speed Gust Speed Precip Events Conditions
12:53 AM 70.0 °F - 55.9 °F 61% 30.01 in 10.0 mi ENE 13.8 mph - N/A   Clear
1:53 AM 68.0 °F - 57.0 °F 68% 30.01 in 10.0 mi East 12.7 mph - N/A   Clear
2:53 AM 66.0 °F - 57.0 °F 73% 30.01 in 10.0 mi ENE 11.5 mph - N/A   Clear
3:53 AM 64.0 °F - 57.0 °F 78% 30.01 in 10.0 mi East 12.7 mph - N/A   Clear
4:53 AM 63.0 °F - 57.0 °F 81% 30.02 in 10.0 mi ENE 9.2 mph - N/A   Clear
5:53 AM 61.0 °F - 57.0 °F 87% 30.03 in 10.0 mi East 9.2 mph - N/A   Clear
6:53 AM 62.1 °F - 57.9 °F 86% 30.05 in 9.0 mi ENE 10.4 mph - N/A   Clear
7:53 AM 64.0 °F - 59.0 °F 84% 30.06 in 10.0 mi ENE 15.0 mph - N/A   Clear
8:53 AM 68.0 °F - 61.0 °F 78% 30.07 in 10.0 mi East 15.0 mph - N/A   Clear
9:53 AM 72.0 °F - 61.0 °F 68% 30.07 in 10.0 mi East 16.1 mph - N/A   Clear
10:53 AM 75.0 °F - 62.1 °F 64% 30.07 in 10.0 mi East 13.8 mph - N/A   Clear
11:53 AM 77.0 °F - 62.1 °F 60% 30.07 in 10.0 mi East 9.2 mph - N/A   Mostly Cloudy
12:53 PM 77.0 °F - 64.0 °F 64% 30.07 in 10.0 mi NE 4.6 mph - 0.00 in   Overcast
1:53 PM 77.0 °F - 63.0 °F 62% 30.08 in 10.0 mi NE 6.9 mph - 0.00 in   Overcast
2:53 PM 77.0 °F - 64.0 °F 64% 30.07 in 10.0 mi NE 9.2 mph - 0.00 in   Mostly Cloudy
3:53 PM 79.0 °F - 63.0 °F 58% 30.05 in 10.0 mi East 12.7 mph - 0.00 in   Partly Cloudy
4:53 PM 79.0 °F - 64.0 °F 60% 30.03 in 10.0 mi East 12.7 mph - N/A   Clear
5:53 PM 80.1 °F 81.5 °F 63.0 °F 56% 30.02 in 10.0 mi East 12.7 mph - N/A   Clear
6:53 PM 78.1 °F - 62.1 °F 58% 30.01 in 10.0 mi East 10.4 mph - N/A   Clear
7:53 PM 75.0 °F - 62.1 °F 64% 30.03 in 10.0 mi NE 8.1 mph - 0.00 in   Clear
8:53 PM 73.9 °F - 60.1 °F 62% 30.04 in 10.0 mi ENE 6.9 mph - N/A   Clear
9:53 PM 73.0 °F - 57.9 °F 59% 30.04 in 10.0 mi ENE 8.1 mph - N/A   Mostly Cloudy
10:53 PM 71.1 °F - 57.9 °F 63% 30.03 in 10.0 mi ENE 8.1 mph - N/A   Clear
11:53 PM 70.0 °F - 57.9 °F 65% 30.03 in 10.0 mi ENE 6.9 mph - N/A   Clear